PDT,Max TemperatureF,Mean TemperatureF,Min TemperatureF,Max Dew PointF,MeanDew PointF,Min DewpointF,Max Humidity, Mean Humidity, Min Humidity, Max Sea Level PressureIn, Mean Sea Level PressureIn, Min Sea Level PressureIn, Max VisibilityMiles, Mean VisibilityMiles, Min VisibilityMiles, Max Wind SpeedMPH, Mean Wind SpeedMPH, Max Gust SpeedMPH,PrecipitationIn, CloudCover, Events, WindDirDegrees
2012-3-1,61,50,38,42,39,37,92,67,42,30.33,30.25,30.19,10,10,9,20,7,20,0.00,1,,318
2012-3-2,60,49,37,41,39,36,92,67,42,30.38,30.32,30.20,10,9,6,14,4,16,0.00,3,,322
2012-3-3,71,52,32,41,37,30,92,62,31,30.40,30.33,30.26,10,9,6,6,1,,0.00,0,,28
2012-3-4,77,56,35,43,38,34,100,63,25,30.27,30.19,30.06,10,4,0,13,2,24,0.00,0,Fog,12
2012-3-5,79,59,38,46,41,37,100,63,25,30.10,30.03,29.93,10,6,0,12,3,26,0.00,0,Fog,321
2012-3-6,60,53,45,42,27,15,66,43,19,29.95,29.91,29.88,10,9,6,31,15,41,0.00,3,,318
2012-3-7,60,47,33,29,21,15,56,38,19,30.25,30.13,29.92,10,10,10,17,6,26,0.00,0,,2
2012-3-8,72,52,31,37,30,27,82,52,22,30.36,30.31,30.25,10,10,9,6,2,,0.00,0,,82
2012-3-9,78,55,32,39,33,23,92,53,13,30.36,30.25,30.12,10,8,3,12,2,,0.00,0,,21
2012-3-10,75,54,33,43,36,33,92,59,25,30.12,30.02,29.93,10,8,4,13,2,29,0.00,0,,320
2012-3-11,66,55,44,44,41,38,93,65,37,30.07,30.02,29.97,10,10,7,14,8,20,0.00,1,,312
2012-3-12,69,56,42,45,42,39,89,62,35,30.08,30.02,29.96,10,10,7,10,5,23,0.00,1,,240
2012-3-13,70,56,42,45,41,38,89,63,36,30.07,30.04,30.01,10,10,10,13,6,,0.00,0,,195
2012-3-14,74,61,47,52,45,41,86,61,35,30.15,30.10,30.06,10,9,2,13,6,,0.00,0,,144
2012-3-15,76,63,49,53,50,46,93,66,38,30.17,30.12,30.06,10,9,1,12,5,33,0.00,1,,329
2012-3-16,70,61,51,53,51,49,93,73,53,30.06,29.95,29.78,10,10,5,15,7,28,0.03,2,Rain,234
2012-3-17,59,50,41,51,45,39,100,78,55,29.75,29.62,29.54,10,7,1,29,14,36,1.39,7,Rain,189
2012-3-18,55,46,37,41,38,32,100,73,45,29.99,29.81,29.72,10,10,9,22,5,,T,5,Rain,108
2012-3-19,56,46,35,39,34,31,93,67,41,30.12,30.04,29.98,10,10,5,8,1,12,0.00,2,,1
2012-3-20,64,50,36,45,39,35,100,71,42,30.24,30.19,30.14,10,9,4,8,2,10,0.00,0,,136
2012-3-21,72,56,40,51,45,39,100,69,38,30.19,30.10,29.98,10,7,2,8,2,142,0.00,0,,89
2012-3-22,71,62,53,53,50,36,93,70,47,29.99,29.93,29.87,10,9,5,17,8,28,0.00,1,,347
2012-3-23,64,56,47,45,37,29,56,47,38,30.13,30.03,29.96,10,10,8,18,10,22,0.00,3,,359
2012-3-24,73,56,39,44,40,34,93,60,27,29.94,29.88,29.77,10,7,2,14,5,25,0.00,0,,180
2012-3-25,55,49,42,48,45,41,93,82,71,29.92,29.85,29.78,10,9,4,18,6,36,0.23,6,Rain,83
2012-3-26,63,54,44,47,44,39,93,71,48,30.14,30.06,29.92,10,10,10,13,6,17,0.00,3,,135
2012-3-27,69,58,47,48,43,38,86,61,35,30.08,30.05,30.01,10,10,9,16,6,21,0.00,1,,172
2012-3-28,70,62,53,52,49,45,83,65,47,30.14,30.08,30.02,10,10,10,12,4,15,T,5,Rain,183
2012-3-29,73,62,50,50,47,44,89,65,41,30.16,30.09,30.03,10,10,8,10,7,,0.00,0,,319
2012-3-30,75,63,50,51,49,47,89,64,38,30.10,30.01,29.92,10,9,5,10,5,,0.00,0,,305
2012-3-31,72,59,46,52,47,44,93,67,41,30.05,29.95,29.89,10,10,7,26,8,35,0.02,4,Rain,171